Time+07,TemperatureF,Dew PointF,Humidity,Sea Level PressureIn,VisibilityMPH,Wind Direction,Wind SpeedMPH,Gust SpeedMPH,PrecipitationIn,Events,Conditions,WindDirDegrees,DateUTC
12:00 AM,86.0,77.0,74,29.77,6.2,SSW,9.2,-,N/A,,Scattered Clouds,210,2013-03-31 17:00:00
12:30 AM,86.0,77.0,74,29.77,6.2,SSW,8.1,-,N/A,,Scattered Clouds,200,2013-03-31 17:30:00
1:00 AM,86,77,69,29.79,6,SSW,9.2,,,,Scattered Clouds,210,2013-03-31 18:00:00
1:00 AM,86.0,77.0,74,29.77,6.2,SSW,9.2,-,N/A,,Scattered Clouds,210,2013-03-31 18:00:00
1:30 AM,86.0,77.0,74,29.77,6.2,SSW,10.4,-,N/A,,Scattered Clouds,210,2013-03-31 18:30:00
2:00 AM,86.0,77.0,74,29.77,6.2,SSW,8.1,-,N/A,,Scattered Clouds,210,2013-03-31 19:00:00
2:30 AM,84.2,77.0,79,29.77,6.2,SSW,6.9,-,N/A,,Scattered Clouds,210,2013-03-31 19:30:00
3:00 AM,84.2,77.0,79,29.77,6.2,SSW,5.8,-,N/A,,Scattered Clouds,200,2013-03-31 20:00:00
3:30 AM,84.2,77.0,79,29.77,6.2,SSW,5.8,-,N/A,,Scattered Clouds,200,2013-03-31 20:30:00
4:00 AM,84.2,78.8,84,29.77,6.2,SSW,5.8,-,N/A,,Scattered Clouds,200,2013-03-31 21:00:00
4:30 AM,84.2,78.8,84,29.74,6.2,SSW,5.8,-,N/A,,Scattered Clouds,200,2013-03-31 21:30:00
5:00 AM,84.2,78.8,84,29.77,6.2,SSW,5.8,-,N/A,,Scattered Clouds,200,2013-03-31 22:00:00
5:30 AM,84.2,78.8,84,29.77,6.2,South,5.8,-,N/A,,Scattered Clouds,180,2013-03-31 22:30:00
6:00 AM,84.2,77.0,79,29.77,-9999.0,South,5.8,-,N/A,,Clear,180,2013-03-31 23:00:00
6:30 AM,84.2,77.0,79,29.80,-9999.0,South,5.8,-,N/A,,Clear,180,2013-03-31 23:30:00
7:00 AM,85,78,75,29.83,6,South,3.5,,,,Scattered Clouds,180,2013-04-01 00:00:00
7:00 AM,84.2,78.8,84,29.80,6.2,South,5.8,-,N/A,,Scattered Clouds,180,2013-04-01 00:00:00
7:30 AM,86.0,78.8,79,29.83,6.2,South,3.5,-,N/A,,Scattered Clouds,180,2013-04-01 00:30:00
8:00 AM,87.8,78.8,75,29.83,6.2,SSE,4.6,-,N/A,,Scattered Clouds,150,2013-04-01 01:00:00
8:30 AM,89.6,78.8,70,29.83,6.2,SSE,5.8,-,N/A,,Scattered Clouds,150,2013-04-01 01:30:00
9:00 AM,91.4,78.8,66,29.86,6.2,SSE,4.6,-,N/A,,Scattered Clouds,150,2013-04-01 02:00:00
9:30 AM,91.4,77.0,63,29.86,6.2,South,4.6,-,N/A,,Scattered Clouds,170,2013-04-01 02:30:00
10:00 AM,93.2,77.0,59,29.86,6.2,SSW,6.9,-,N/A,,Scattered Clouds,210,2013-04-01 03:00:00
10:30 AM,93.2,75.2,56,29.86,6.2,SSW,4.6,-,N/A,,Scattered Clouds,200,2013-04-01 03:30:00
11:00 AM,95.0,75.2,53,29.83,6.2,WSW,6.9,-,N/A,,Scattered Clouds,250,2013-04-01 04:00:00
11:30 AM,95.0,75.2,53,29.83,6.2,SSW,4.6,-,N/A,,Scattered Clouds,200,2013-04-01 04:30:00
12:00 PM,96.8,75.2,50,29.83,6.2,South,3.5,-,N/A,,Scattered Clouds,190,2013-04-01 05:00:00
12:30 PM,96.8,75.2,50,29.83,6.2,SW,8.1,-,N/A,,Scattered Clouds,230,2013-04-01 05:30:00
1:00 PM,98,74,36,29.81,6,SW,9.2,,,,Scattered Clouds,220,2013-04-01 06:00:00
1:00 PM,98.6,73.4,44,29.80,6.2,SW,9.2,-,N/A,,Scattered Clouds,220,2013-04-01 06:00:00
1:30 PM,98.6,73.4,44,29.77,6.2,SW,8.1,-,N/A,,Scattered Clouds,230,2013-04-01 06:30:00
2:00 PM,100.4,73.4,42,29.77,6.2,South,4.6,-,N/A,,Scattered Clouds,180,2013-04-01 07:00:00
2:30 PM,100.4,71.6,39,29.74,6.2,SW,6.9,-,N/A,,Scattered Clouds,230,2013-04-01 07:30:00
3:00 PM,100.4,71.6,39,29.74,6.2,SSW,9.2,-,N/A,,Scattered Clouds,200,2013-04-01 08:00:00
3:30 PM,100.4,71.6,39,29.71,6.2,SW,9.2,-,N/A,,Scattered Clouds,230,2013-04-01 08:30:00
4:00 PM,100.4,71.6,39,29.71,6.2,SSW,9.2,-,N/A,,Scattered Clouds,210,2013-04-01 09:00:00
4:30 PM,98.6,71.6,42,29.71,6.2,SW,13.8,-,N/A,,Scattered Clouds,230,2013-04-01 09:30:00
5:00 PM,96.8,71.6,44,29.71,6.2,SSW,11.5,-,N/A,,Scattered Clouds,200,2013-04-01 10:00:00
5:30 PM,95.0,71.6,47,29.74,6.2,SSW,11.5,-,N/A,,Scattered Clouds,200,2013-04-01 10:30:00
6:00 PM,95.0,71.6,47,29.74,6.2,SSW,12.7,-,N/A,,Scattered Clouds,210,2013-04-01 11:00:00
6:30 PM,93.2,71.6,49,29.74,6.2,SSW,11.5,-,N/A,,Scattered Clouds,210,2013-04-01 11:30:00
7:00 PM,92,73,44,29.76,6,SSW,12.7,,,,Scattered Clouds,210,2013-04-01 12:00:00
7:00 PM,91.4,71.6,52,29.74,6.2,SSW,12.7,-,N/A,,Scattered Clouds,210,2013-04-01 12:00:00
7:30 PM,89.6,75.2,62,29.77,6.2,SSW,12.7,-,N/A,,Scattered Clouds,210,2013-04-01 12:30:00
8:00 PM,89.6,77.0,66,29.77,6.2,SSW,13.8,-,N/A,,Scattered Clouds,210,2013-04-01 13:00:00
8:30 PM,87.8,77.0,70,29.80,6.2,SSW,17.3,-,N/A,,Scattered Clouds,210,2013-04-01 13:30:00
9:00 PM,87.8,77.0,70,29.80,6.2,SSW,13.8,-,N/A,,Scattered Clouds,200,2013-04-01 14:00:00
9:30 PM,87.8,77.0,70,29.80,6.2,SSW,13.8,-,N/A,,Scattered Clouds,200,2013-04-01 14:30:00
10:00 PM,87.8,77.0,70,29.80,6.2,SSW,8.1,-,N/A,,Scattered Clouds,200,2013-04-01 15:00:00
10:30 PM,87.8,77.0,70,29.80,6.2,SSW,13.8,-,N/A,,Scattered Clouds,210,2013-04-01 15:30:00
11:00 PM,87.8,78.8,75,29.83,6.2,South,9.2,-,N/A,,Scattered Clouds,190,2013-04-01 16:00:00
11:30 PM,86.0,78.8,79,29.83,6.2,South,8.1,-,N/A,,Scattered Clouds,180,2013-04-01 16:30:00